| time (UTC) | temp C | wind direction | speed KPH | gust KPH | rain 1hr cm | rain 24hr cm | rain mn cm | humidity % | barometer mb |
| 20260502183257 | 14 | 257 | 1.6 | 16.1 | 0.00 | 0.00 | 0.00 | 40 | 1012.5 |
| 20260502182751 | 15 | 253 | 1.6 | 9.7 | 0.00 | 0.00 | 0.00 | 39 | 1012.6 |
| 20260502182250 | 15 | 128 | 0.0 | 8.0 | 0.00 | 0.00 | 0.00 | 45 | 1013.0 |
| 20260502181749 | 15 | 128 | 3.2 | 12.9 | 0.00 | 0.00 | 0.00 | 40 | 1013.0 |
| 20260502181246 | 14 | 130 | 3.2 | 12.9 | 0.00 | 0.00 | 0.00 | 41 | 1012.8 |
| 20260502180743 | 15 | 293 | 1.6 | 16.1 | 0.00 | 0.00 | 0.00 | 43 | 1013.0 |
| 20260502180227 | 15 | 120 | 1.6 | 16.1 | 0.00 | 0.00 | 0.00 | 47 | 1013.0 |
| 20260502170116 | 13 | 244 | 3.2 | 17.7 | 0.00 | 0.00 | 0.00 | 44 | 1013.8 |
| 20260502164046 | 12 | 132 | 8.0 | 19.3 | 0.00 | 0.00 | 0.00 | 47 | 1014.3 |
| 20260502163544 | 12 | 137 | 3.2 | 12.9 | 0.00 | 0.00 | 0.00 | 47 | 1014.2 |
| 20260502163038 | 12 | 339 | 3.2 | 9.7 | 0.00 | 0.00 | 0.00 | 47 | 1014.1 |
| 20260502162534 | 11 | 202 | 3.2 | 11.3 | 0.00 | 0.00 | 0.00 | 48 | 1014.2 |
| 20260502162028 | 12 | 217 | 3.2 | 11.3 | 0.00 | 0.00 | 0.00 | 44 | 1014.4 |
| 20260502161520 | 12 | 39 | 1.6 | 9.7 | 0.00 | 0.00 | 0.00 | 48 | 1014.6 |
| 20260502161015 | 12 | 313 | 3.2 | 17.7 | 0.00 | 0.00 | 0.00 | 47 | 1014.5 |
| 20260502160504 | 12 | 246 | 3.2 | 17.7 | 0.00 | 0.00 | 0.00 | 50 | 1014.4 |
| 20260502151914 | 10 | 334 | 1.6 | 8.0 | 0.00 | 0.00 | 0.00 | 51 | 1014.3 |
| 20260502151409 | 11 | 71 | 3.2 | 8.0 | 0.00 | 0.00 | 0.00 | 52 | 1014.5 |
| 20260502150904 | 11 | 67 | 1.6 | 9.7 | 0.00 | 0.00 | 0.00 | 55 | 1014.6 |
| 20260502150354 | 11 | 122 | 1.6 | 11.3 | 0.00 | 0.00 | 0.00 | 51 | 1014.3 |
| 20260502130644 | 8 | 184 | 3.2 | 12.9 | 0.00 | 0.00 | 0.00 | 58 | 1013.9 |
| 20260502130134 | 8 | 146 | 4.8 | 12.9 | 0.00 | 0.00 | 0.00 | 58 | 1013.7 |
| 20260502123608 | 8 | 150 | 4.8 | 16.1 | 0.00 | 0.00 | 0.00 | 59 | 1013.7 |
| 20260502123052 | 8 | 9 | 3.2 | 12.9 | 0.00 | 0.00 | 0.00 | 59 | 1013.7 |
| 20260502122550 | 8 | 266 | 3.2 | 16.1 | 0.00 | 0.00 | 0.00 | 58 | 1013.6 |
| 20260502122046 | 8 | 127 | 3.2 | 16.1 | 0.00 | 0.00 | 0.00 | 58 | 1013.7 |
| 20260502121538 | 8 | 98 | 3.2 | 20.9 | 0.00 | 0.00 | 0.00 | 59 | 1013.6 |
| 20260502121033 | 8 | 78 | 4.8 | 20.9 | 0.00 | 0.00 | 0.00 | 58 | 1013.4 |
| 20260502120526 | 8 | 126 | 4.8 | 20.9 | 0.00 | 0.00 | 0.00 | 58 | 1013.5 |
| 20260502115517 | 8 | 219 | 4.8 | 19.3 | 0.00 | 0.00 | 0.00 | 58 | 1013.5 |
| 20260502115008 | 8 | 155 | 3.2 | 12.9 | 0.00 | 0.00 | 0.00 | 60 | 1013.4 |
| 20260502114723 | 8 | 164 | 3.2 | 12.9 | 0.00 | 0.00 | 0.00 | 59 | 1013.2 |
| 20260502113954 | 8 | 143 | 3.2 | 12.9 | 0.00 | 0.00 | 0.00 | 60 | 1013.3 |
| 20260502113446 | 8 | 132 | 1.6 | 11.3 | 0.00 | 0.00 | 0.00 | 60 | 1013.3 |
| 20260502112944 | 8 | 94 | 3.2 | 12.9 | 0.00 | 0.00 | 0.00 | 59 | 1013.4 |
| 20260502112706 | 8 | 167 | 3.2 | 11.3 | 0.00 | 0.00 | 0.00 | 60 | 1013.3 |
| 20260502112132 | 8 | 38 | 3.2 | 16.1 | 0.00 | 0.00 | 0.00 | 61 | 1013.2 |
| 20260502112017 | 8 | 266 | 3.2 | 11.3 | 0.00 | 0.00 | 0.00 | 61 | 1013.1 |
| 20260502110916 | 8 | 350 | 3.2 | 16.1 | 0.00 | 0.00 | 0.00 | 60 | 1013.0 |
| 20260502110416 | 8 | 26 | 3.2 | 12.9 | 0.00 | 0.00 | 0.00 | 60 | 1013.1 |
| 20260502105909 | 8 | 42 | 3.2 | 12.9 | 0.00 | 0.00 | 0.00 | 59 | 1013.1 |
| 20260502105402 | 8 | 9 | 3.2 | 16.1 | 0.00 | 0.00 | 0.00 | 59 | 1013.2 |
| 20260502104852 | 8 | 16 | 3.2 | 16.1 | 0.00 | 0.00 | 0.00 | 58 | 1013.3 |
| 20260502104614 | 8 | 261 | 3.2 | 11.3 | 0.00 | 0.00 | 0.00 | 58 | 1013.4 |
| 20260502104104 | 8 | 156 | 3.2 | 12.9 | 0.00 | 0.00 | 0.00 | 57 | 1013.4 |
| 20260502103334 | 8 | 146 | 4.8 | 16.1 | 0.00 | 0.00 | 0.00 | 57 | 1013.4 |
| 20260502102833 | 8 | 19 | 3.2 | 16.1 | 0.00 | 0.00 | 0.00 | 56 | 1013.5 |
| 20260502102326 | 9 | 36 | 4.8 | 12.9 | 0.00 | 0.00 | 0.00 | 56 | 1013.4 |
| 20260502101820 | 9 | 155 | 4.8 | 12.9 | 0.00 | 0.00 | 0.00 | 56 | 1013.5 |
| 20260502101314 | 9 | 28 | 3.2 | 19.3 | 0.00 | 0.00 | 0.00 | 56 | 1013.4 |
| 20260502101024 | 9 | 342 | 4.8 | 19.3 | 0.00 | 0.00 | 0.00 | 56 | 1013.3 |
| 20260502100303 | 9 | 241 | 3.2 | 16.1 | 0.00 | 0.00 | 0.00 | 56 | 1013.4 |
| 20260502090857 | 10 | 123 | 4.8 | 20.9 | 0.00 | 0.00 | 0.00 | 55 | 1013.2 |
| 20260502090743 | 10 | 304 | 4.8 | 20.9 | 0.00 | 0.00 | 0.00 | 55 | 1013.2 |
| 20260502070504 | 11 | 5 | 3.2 | 16.1 | 0.00 | 0.00 | 0.00 | 64 | 1012.9 |
| 20260502070006 | 11 | 335 | 3.2 | 16.1 | 0.00 | 0.00 | 0.00 | 64 | 1013.0 |
| 20260502065458 | 11 | 332 | 4.8 | 16.1 | 0.00 | 0.00 | 0.00 | 64 | 1012.9 |
| 20260502064954 | 11 | 0 | 4.8 | 17.7 | 0.00 | 0.00 | 0.00 | 63 | 1012.8 |
| 20260502064454 | 11 | 286 | 4.8 | 17.7 | 0.00 | 0.00 | 0.00 | 63 | 1013.0 |
| 20260502063953 | 11 | 0 | 3.2 | 17.7 | 0.00 | 0.00 | 0.00 | 63 | 1013.0 |
| 20260502063453 | 11 | 283 | 3.2 | 17.7 | 0.00 | 0.00 | 0.00 | 63 | 1013.0 |
| 20260502063207 | 11 | 320 | 3.2 | 17.7 | 0.00 | 0.00 | 0.00 | 63 | 1013.1 |
| 20260502062709 | 11 | 274 | 4.8 | 16.1 | 0.00 | 0.00 | 0.00 | 63 | 1013.2 |
| 20260502061950 | 11 | 305 | 4.8 | 16.1 | 0.00 | 0.00 | 0.00 | 62 | 1013.2 |
| 20260502061452 | 11 | 285 | 3.2 | 19.3 | 0.00 | 0.00 | 0.00 | 63 | 1013.2 |
| 20260502060949 | 11 | 245 | 4.8 | 19.3 | 0.00 | 0.00 | 0.00 | 62 | 1013.3 |
| 20260502060448 | 11 | 344 | 4.8 | 17.7 | 0.00 | 0.00 | 0.00 | 62 | 1013.3 |
| 20260502055933 | 11 | 18 | 4.8 | 16.1 | 0.00 | 0.00 | 0.00 | 62 | 1013.1 |
| 20260502055654 | 11 | 5 | 4.8 | 17.7 | 0.00 | 0.00 | 0.00 | 61 | 1013.1 |
| 20260502055154 | 11 | 247 | 4.8 | 17.7 | 0.00 | 0.00 | 0.00 | 61 | 1013.0 |
| 20260502054431 | 11 | 257 | 4.8 | 19.3 | 0.00 | 0.00 | 0.00 | 60 | 1013.1 |
| 20260502054151 | 11 | 269 | 4.8 | 19.3 | 0.00 | 0.00 | 0.00 | 60 | 1013.2 |
| 20260502053421 | 11 | 342 | 4.8 | 12.9 | 0.00 | 0.00 | 0.00 | 60 | 1013.3 |
| 20260502052903 | 12 | 173 | 4.8 | 17.7 | 0.00 | 0.00 | 0.00 | 60 | 1013.3 |
| 20260502052617 | 12 | 327 | 4.8 | 19.3 | 0.00 | 0.00 | 0.00 | 60 | 1013.3 |
| 20260502051849 | 12 | 321 | 4.8 | 19.3 | 0.00 | 0.00 | 0.00 | 61 | 1013.4 |
| 20260502051349 | 12 | 341 | 3.2 | 20.9 | 0.00 | 0.00 | 0.00 | 61 | 1013.4 |
| 20260502050845 | 12 | 355 | 4.8 | 20.9 | 0.00 | 0.00 | 0.00 | 61 | 1013.4 |
| 20260502050335 | 12 | 265 | 4.8 | 20.9 | 0.00 | 0.00 | 0.00 | 61 | 1013.3 |
| 20260502050059 | 12 | 288 | 4.8 | 16.1 | 0.00 | 0.00 | 0.00 | 61 | 1013.3 |
| 20260502045331 | 12 | 325 | 4.8 | 17.7 | 0.00 | 0.00 | 0.00 | 61 | 1013.3 |
| 20260502044826 | 12 | 244 | 8.0 | 17.7 | 0.00 | 0.00 | 0.00 | 60 | 1013.3 |
| 20260502044326 | 12 | 348 | 4.8 | 19.3 | 0.00 | 0.00 | 0.00 | 61 | 1013.4 |
| 20260502044048 | 12 | 276 | 8.0 | 19.3 | 0.00 | 0.00 | 0.00 | 61 | 1013.3 |
| 20260502043327 | 12 | 16 | 4.8 | 17.7 | 0.00 | 0.00 | 0.00 | 62 | 1013.4 |
| 20260502043017 | 12 | 255 | 3.2 | 12.9 | 0.00 | 0.00 | 0.00 | 63 | 1013.5 |
| 20260502042901 | 12 | 298 | 3.2 | 12.9 | 0.00 | 0.00 | 0.00 | 62 | 1013.4 |
| 20260502041757 | 12 | 338 | 3.2 | 11.3 | 0.00 | 0.00 | 0.00 | 63 | 1013.4 |
| 20260502041241 | 12 | 288 | 4.8 | 12.9 | 0.00 | 0.00 | 0.00 | 63 | 1013.4 |
| 20260502040955 | 13 | 302 | 3.2 | 12.9 | 0.00 | 0.00 | 0.00 | 64 | 1013.5 |
| 20260502040442 | 13 | 310 | 1.6 | 9.7 | 0.00 | 0.00 | 0.00 | 64 | 1013.4 |
| 20260502035709 | 13 | 244 | 1.6 | 9.7 | 0.00 | 0.00 | 0.00 | 63 | 1013.4 |
| 20260502035154 | 13 | 262 | 1.6 | 16.1 | 0.00 | 0.00 | 0.00 | 64 | 1013.6 |
| 20260502034646 | 13 | 229 | 1.6 | 16.1 | 0.00 | 0.00 | 0.00 | 63 | 1013.6 |
| 20260502034133 | 13 | 250 | 0.0 | 16.1 | 0.00 | 0.00 | 0.00 | 63 | 1013.4 |
| 20260502033623 | 13 | 301 | 0.0 | 16.1 | 0.00 | 0.00 | 0.00 | 63 | 1013.3 |
| 20260502033115 | 13 | 180 | 0.0 | 0.0 | 0.00 | 0.00 | 0.00 | 63 | 1013.2 |
| 20260502032557 | 13 | 180 | 0.0 | 0.0 | 0.00 | 0.00 | 0.00 | 63 | 1013.3 |
| 20260502032046 | 13 | 180 | 0.0 | 0.0 | 0.00 | 0.00 | 0.00 | 64 | 1013.3 |
| 20260502031541 | 13 | 180 | 0.0 | 0.0 | 0.00 | 0.00 | 0.00 | 64 | 1013.3 |
| 20260502031257 | 13 | 180 | 0.0 | 0.0 | 0.00 | 0.00 | 0.00 | 63 | 1013.1 |
| 20260502030509 | 13 | 180 | 0.0 | 8.0 | 0.00 | 0.00 | 0.00 | 63 | 1013.0 |
| 20260502030222 | 13 | 180 | 0.0 | 11.3 | 0.00 | 0.00 | 0.00 | 61 | 1013.0 |
| 20260502025445 | 13 | 333 | 0.0 | 4.8 | 0.00 | 0.00 | 0.00 | 64 | 1013.1 |
| 20260502024947 | 13 | 333 | 0.0 | 8.0 | 0.00 | 0.00 | 0.00 | 65 | 1013.0 |
| 20260502024420 | 12 | 13 | 0.0 | 11.3 | 0.00 | 0.00 | 0.00 | 71 | 1012.9 |
| 20260502023908 | 12 | 17 | 0.0 | 11.3 | 0.00 | 0.00 | 0.00 | 74 | 1012.7 |
| 20260502023357 | 12 | 73 | 0.0 | 0.0 | 0.00 | 0.00 | 0.00 | 72 | 1012.5 |
| 20260502022851 | 12 | 73 | 0.0 | 0.0 | 0.00 | 0.00 | 0.00 | 73 | 1012.5 |
| 20260502022343 | 12 | 73 | 0.0 | 0.0 | 0.00 | 0.00 | 0.00 | 74 | 1012.4 |
| 20260502021827 | 12 | 73 | 0.0 | 0.0 | 0.00 | 0.00 | 0.00 | 74 | 1012.2 |
| 20260502021318 | 12 | 73 | 0.0 | 0.0 | 0.00 | 0.00 | 0.00 | 74 | 1011.8 |
| 20260502020819 | 12 | 73 | 0.0 | 0.0 | 0.00 | 0.00 | 0.00 | 75 | 1011.8 |
| 20260502020523 | 12 | 73 | 0.0 | 0.0 | 0.00 | 0.00 | 0.00 | 73 | 1011.7 |
| 20260502015747 | 12 | 73 | 0.0 | 0.0 | 0.00 | 0.00 | 0.00 | 72 | 1011.8 |
| 20260502015247 | 12 | 73 | 0.0 | 0.0 | 0.00 | 0.00 | 0.00 | 72 | 1011.6 |
| 20260502014739 | 12 | 73 | 0.0 | 0.0 | 0.00 | 0.00 | 0.00 | 72 | 1011.6 |
| 20260502014458 | 12 | 73 | 0.0 | 0.0 | 0.00 | 0.00 | 0.00 | 72 | 1011.6 |
| 20260502013959 | 12 | 73 | 0.0 | 0.0 | 0.00 | 0.00 | 0.00 | 72 | 1011.7 |
| 20260502013227 | 12 | 73 | 0.0 | 1.6 | 0.00 | 0.00 | 0.00 | 72 | 1011.7 |
| 20260502012703 | 12 | 73 | 0.0 | 3.2 | 0.00 | 0.00 | 0.00 | 72 | 1011.6 |
| 20260502012201 | 12 | 73 | 0.0 | 3.2 | 0.00 | 0.00 | 0.00 | 72 | 1011.4 |
| 20260502011647 | 12 | 73 | 0.0 | 3.2 | 0.00 | 0.00 | 0.00 | 73 | 1011.5 |
| 20260502011149 | 12 | 73 | 0.0 | 3.2 | 0.00 | 0.00 | 0.00 | 72 | 1011.4 |
| 20260502010648 | 12 | 73 | 0.0 | 3.2 | 0.00 | 0.00 | 0.00 | 71 | 1011.4 |
| 20260502010136 | 12 | 74 | 0.0 | 0.0 | 0.00 | 0.00 | 0.00 | 70 | 1011.4 |
| 20260502005631 | 12 | 74 | 0.0 | 0.0 | 0.00 | 0.00 | 0.00 | 70 | 1011.2 |
| 20260502005107 | 12 | 74 | 0.0 | 0.0 | 0.00 | 0.00 | 0.00 | 70 | 1011.2 |
| 20260502004543 | 13 | 74 | 0.0 | 0.0 | 0.00 | 0.00 | 0.00 | 70 | 1011.2 |
| 20260502004037 | 13 | 74 | 0.0 | 0.0 | 0.00 | 0.00 | 0.00 | 67 | 1011.1 |
| 20260502003719 | 13 | 74 | 0.0 | 0.0 | 0.00 | 0.00 | 0.00 | 67 | 1011.2 |
| 20260502002953 | 13 | 74 | 0.0 | 0.0 | 0.00 | 0.00 | 0.00 | 67 | 1011.1 |
| 20260502002452 | 13 | 74 | 0.0 | 0.0 | 0.00 | 0.00 | 0.00 | 64 | 1011.1 |
| 20260502001936 | 14 | 74 | 0.0 | 0.0 | 0.00 | 0.00 | 0.00 | 63 | 1011.1 |
| 20260502001433 | 14 | 74 | 0.0 | 0.0 | 0.00 | 0.00 | 0.00 | 63 | 1011.1 |
| 20260502000928 | 15 | 74 | 0.0 | 3.2 | 0.00 | 0.00 | 0.00 | 61 | 1011.0 |
| 20260502000424 | 15 | 74 | 0.0 | 3.2 | 0.00 | 0.00 | 0.00 | 60 | 1010.9 |
| 20260501235907 | 15 | 173 | 0.0 | 0.0 | 0.00 | 0.00 | 0.00 | 59 | 1010.9 |
| 20260501235400 | 15 | 173 | 0.0 | 0.0 | 0.00 | 0.00 | 0.00 | 58 | 1010.8 |
| 20260501234848 | 16 | 172 | 1.6 | 12.9 | 0.00 | 0.00 | 0.00 | 59 | 1010.9 |
| 20260501234348 | 16 | 172 | 0.0 | 12.9 | 0.00 | 0.00 | 0.00 | 55 | 1011.0 |
| 20260501233845 | 16 | 169 | 0.0 | 3.2 | 0.00 | 0.00 | 0.00 | 57 | 1010.9 |
| 20260501233346 | 16 | 173 | 0.0 | 8.0 | 0.00 | 0.00 | 0.00 | 54 | 1010.8 |
| 20260501232834 | 16 | 173 | 1.6 | 8.0 | 0.00 | 0.00 | 0.00 | 56 | 1010.8 |
| 20260501232324 | 16 | 142 | 1.6 | 9.7 | 0.00 | 0.00 | 0.00 | 55 | 1010.9 |
| 20260501231816 | 16 | 142 | 0.0 | 9.7 | 0.00 | 0.00 | 0.00 | 52 | 1010.8 |
| 20260501231319 | 16 | 192 | 0.0 | 4.8 | 0.00 | 0.00 | 0.00 | 53 | 1010.9 |
| 20260501230805 | 16 | 199 | 0.0 | 0.0 | 0.00 | 0.00 | 0.00 | 51 | 1010.9 |
| 20260501230259 | 16 | 199 | 1.6 | 11.3 | 0.00 | 0.00 | 0.00 | 51 | 1010.8 |
| 20260501225750 | 16 | 199 | 1.6 | 11.3 | 0.00 | 0.00 | 0.00 | 51 | 1010.9 |
| 20260501225247 | 16 | 204 | 0.0 | 8.0 | 0.00 | 0.00 | 0.00 | 52 | 1010.9 |
| 20260501224741 | 16 | 178 | 1.6 | 11.3 | 0.00 | 0.00 | 0.00 | 51 | 1010.8 |
| 20260501224241 | 17 | 178 | 3.2 | 11.3 | 0.00 | 0.00 | 0.00 | 51 | 1010.8 |
| 20260501223728 | 17 | 178 | 4.8 | 11.3 | 0.00 | 0.00 | 0.00 | 49 | 1010.9 |
| 20260501223218 | 17 | 136 | 3.2 | 11.3 | 0.00 | 0.00 | 0.00 | 50 | 1011.0 |
| 20260501222717 | 17 | 136 | 3.2 | 12.9 | 0.00 | 0.00 | 0.00 | 49 | 1010.9 |
| 20260501222211 | 17 | 138 | 4.8 | 12.9 | 0.00 | 0.00 | 0.00 | 49 | 1011.0 |
| 20260501222148 | 17 | 161 | 4.8 | 16.1 | 0.00 | 0.00 | 0.00 | 49 | 1011.0 |
| 20260501221158 | 17 | 173 | 3.2 | 16.1 | 0.00 | 0.00 | 0.00 | 48 | 1010.9 |
| 20260501220655 | 17 | 140 | 3.2 | 12.9 | 0.00 | 0.00 | 0.00 | 49 | 1011.0 |
| 20260501220147 | 17 | 177 | 3.2 | 16.1 | 0.00 | 0.00 | 0.00 | 48 | 1011.1 |
| 20260501215639 | 17 | 194 | 1.6 | 16.1 | 0.00 | 0.00 | 0.00 | 48 | 1011.2 |
| 20260501215136 | 17 | 213 | 1.6 | 8.0 | 0.00 | 0.00 | 0.00 | 48 | 1011.2 |
| 20260501214629 | 17 | 219 | 1.6 | 8.0 | 0.00 | 0.00 | 0.00 | 48 | 1011.2 |
| 20260501214348 | 17 | 243 | 4.8 | 16.1 | 0.00 | 0.00 | 0.00 | 47 | 1011.1 |
| 20260501213619 | 17 | 128 | 4.8 | 16.1 | 0.00 | 0.00 | 0.00 | 46 | 1011.2 |
| 20260501213106 | 18 | 155 | 3.2 | 11.3 | 0.00 | 0.00 | 0.00 | 47 | 1011.3 |
| 20260501212604 | 18 | 202 | 3.2 | 11.3 | 0.00 | 0.00 | 0.00 | 46 | 1011.3 |
| 20260501212059 | 18 | 182 | 4.8 | 12.9 | 0.00 | 0.00 | 0.00 | 46 | 1011.4 |
| 20260501211553 | 18 | 130 | 3.2 | 12.9 | 0.00 | 0.00 | 0.00 | 46 | 1011.5 |
| 20260501211047 | 18 | 323 | 1.6 | 11.3 | 0.00 | 0.00 | 0.00 | 48 | 1011.5 |
| 20260501210541 | 17 | 163 | 4.8 | 16.1 | 0.00 | 0.00 | 0.00 | 46 | 1011.5 |
| 20260501210034 | 17 | 88 | 8.0 | 17.7 | 0.00 | 0.00 | 0.00 | 47 | 1011.5 |
| 20260501205524 | 17 | 169 | 9.7 | 20.9 | 0.00 | 0.00 | 0.00 | 45 | 1011.5 |
| 20260501205250 | 17 | 123 | 8.0 | 20.9 | 0.00 | 0.00 | 0.00 | 45 | 1011.5 |
| 20260501204517 | 17 | 114 | 8.0 | 16.1 | 0.00 | 0.00 | 0.00 | 45 | 1011.6 |
| 20260501204011 | 17 | 122 | 4.8 | 16.1 | 0.00 | 0.00 | 0.00 | 43 | 1011.7 |
| 20260501203726 | 18 | 169 | 1.6 | 11.3 | 0.00 | 0.00 | 0.00 | 46 | 1011.8 |
| 20260501202954 | 18 | 142 | 1.6 | 11.3 | 0.00 | 0.00 | 0.00 | 42 | 1011.9 |
| 20260501202454 | 18 | 302 | 3.2 | 20.9 | 0.00 | 0.00 | 0.00 | 44 | 1012.1 |
| 20260501201946 | 17 | 131 | 3.2 | 20.9 | 0.00 | 0.00 | 0.00 | 45 | 1012.3 |
| 20260501201441 | 18 | 204 | 4.8 | 19.3 | 0.00 | 0.00 | 0.00 | 42 | 1012.4 |
| 20260501200934 | 18 | 136 | 4.8 | 19.3 | 0.00 | 0.00 | 0.00 | 48 | 1012.4 |
| 20260501200429 | 18 | 155 | 3.2 | 17.7 | 0.00 | 0.00 | 0.00 | 47 | 1012.5 |
| 20260501195922 | 17 | 161 | 3.2 | 17.7 | 0.00 | 0.00 | 0.00 | 45 | 1012.5 |
| 20260501195633 | 18 | 131 | 3.2 | 17.7 | 0.00 | 0.00 | 0.00 | 45 | 1012.8 |
| 20260501194916 | 17 | 129 | 3.2 | 16.1 | 0.00 | 0.00 | 0.00 | 46 | 1012.8 |
| 20260501194406 | 17 | 212 | 3.2 | 12.9 | 0.00 | 0.00 | 0.00 | 45 | 1012.9 |
| 20260501193901 | 17 | 305 | 4.8 | 16.1 | 0.00 | 0.00 | 0.00 | 44 | 1013.0 |
| 20260501193355 | 17 | 213 | 8.0 | 20.9 | 0.00 | 0.00 | 0.00 | 49 | 1013.1 |
| 20260501192841 | 17 | 112 | 4.8 | 20.9 | 0.00 | 0.00 | 0.00 | 46 | 1013.2 |
| 20260501192340 | 17 | 158 | 4.8 | 17.7 | 0.00 | 0.00 | 0.00 | 44 | 1013.4 |
| 20260501191835 | 17 | 115 | 8.0 | 17.7 | 0.00 | 0.00 | 0.00 | 46 | 1013.5 |
| 20260501191807 | 17 | 128 | 4.8 | 17.7 | 0.00 | 0.00 | 0.00 | 45 | 1013.6 |
| 20260501190825 | 17 | 118 | 3.2 | 12.9 | 0.00 | 0.00 | 0.00 | 44 | 1013.6 |
| 20260501190319 | 17 | 232 | 4.8 | 16.1 | 0.00 | 0.00 | 0.00 | 46 | 1013.6 |
| 20260501185813 | 16 | 161 | 9.7 | 25.7 | 0.00 | 0.00 | 0.00 | 49 | 1013.4 |
| 20260501185757 | 16 | 148 | 11.3 | 25.7 | 0.00 | 0.00 | 0.00 | 48 | 1013.4 |
| 20260501184758 | 16 | 121 | 8.0 | 22.5 | 0.00 | 0.00 | 0.00 | 47 | 1013.5 |
| 20260501184253 | 17 | 143 | 4.8 | 20.9 | 0.00 | 0.00 | 0.00 | 47 | 1013.7 |
| 20260501184010 | 17 | 118 | 4.8 | 20.9 | 0.00 | 0.00 | 0.00 | 50 | 1013.8 |